KSPB

Details ICAO KSPB (SPB)
Name SCAPPOOSE INDUSTRIAL AIRPARK
Region United States
Timezone America/Los_Angeles (UTC-7.0)
Plans Departing 8
Arriving 11
Stats Elevation 58 ft / 18 m (AMSL)
Location 45.771035° -122.861825°
Runways 1
Magnetic Variation 15.326° E
Sunrise 2018-05-20 12:35:55 UTC / 2018-05-20 05:35:55 Local
Sunset 2018-05-21 03:42:55 UTC / 2018-05-20 20:42:55 Local
Advertisement - Login to hide

Runways

ID Width Length Bearing (true) Bearing (mag) Surface Threshold Offset Overrun Length
15 98 ft / 30 m 5,105 ft / 1,556 m 168.68° 153.35° Asphalt 0 ft / 0 m 0 ft / 0 m
33 98 ft / 30 m 5,105 ft / 1,556 m 348.69° 333.36° Asphalt 0 ft / 0 m 16 ft / 5 m

Approach Navaids

Runway Type Ident Frequency Range Bearing (true) Bearing (mag) Slope Elevation
15 Localiser IFKO 111.10 MHz 18 nm / 33 km 168.69° 153.36° - 58 ft / 18 m (AMSL)
15 DME IFKO 111.10 MHz 18 nm / 33 km - - - 38 ft / 12 m (AMSL)

Map

Weather


0- 5 10 15 20 25 30 35+ Temperature / ° C

Clouds and Precipitation
Forecast for 2018-05-20 12:00 UTC. Updated 2 hours ago

Ground ~20,000 ft ~40,000 ft Winds

METAR

KSPB 201253Z AUTO VRB06KT 10SM OVC024 13/08 A3002 RMK AO2 SLP164 T01280078

TAF

Not found

Frequencies

Recorded 135.87 MHz ASOS
Clearance 121.65 MHz CLNC DEL
Unicom 122.80 MHz CTAF/UNICOM
Approach 133.00 MHz PORTLAND APP/DEP
Warning: Do not use this data for real-world aviation or navigation. No guarantee of current accuracy is given.